Weather History for KAEX - January, 1999

Change the Weather History Date:

Thursday, January 21, 1999

  Actual Average Record
Temperature  
Mean Temperature 74 °F 49 °F  
Max Temperature 78 °F 59 °F 79 °F (1937)
Min Temperature 69 °F 38 °F 13 °F (1985)
Degree Days  
Heating Degree Days 0 16  
Month to date heating degree days 336  
Since 1 July heating degree days 1125  
Cooling Degree Days 8    
Growing Degree Days 24 (Base 50)    
Moisture  
Dew Point 65 °F    
Average Humidity 80    
Maximum Humidity 94    
Minimum Humidity 57    
Precipitation  
Precipitation 0.00 in 0.18 in 2.30 in (1954)
Month to date precipitation 3.30  
Year to date precipitation 3.30  
Snow  
Snow 0.00 in - T in (1946)
Month to date snowfall  
Since 1 July snowfall  
Snow Depth -    
Sea Level Pressure  
Sea Level Pressure 29.69 in    
Wind  
Wind Speed 15 mph (South)    
Max Wind Speed 23 mph    
Max Gust Speed 32 mph    
Visibility 7 miles    
Events Rain , Thunderstorm    
T = Trace of Precipitation, MM = Missing Value Source: NWS Daily Summary

Daily Weather History Graph

Daily Weather History Graph

Search for Another Location

Airport or City:

Trip Planner

Search our weather history database for the weather conditions in past years. The results will help you decide how hot, cold, wet, or windy it might be!

Date:

Astronomy

Jan. 21, 1999 Rise Set
Actual Time 7:08 AM CST 5:35 PM CST
Civil Twilight 6:42 AM CST 6:01 PM CST
Nautical Twilight 6:12 AM CST 6:30 PM CST
Astronomical Twilight 5:43 AM CST 6:59 PM CST
Moon 9:52 AM CST (1/21) 9:51 PM CST (1/21)
Length of Visible Light 11h 18m
Length of Day
10h 26m
Waxing Crescent, 18% of the Moon is Illuminated
Jan 21
Waxing Crescent
Jan 24
First Quarter
Jan 31
Full
Feb 8
Last Quarter
Feb 16
New

Hourly Weather History & Observations

Time (CST) Temp. Dew Point Humidity Pressure Visibility Wind Dir Wind Speed Gust Speed Precip Events Conditions
12:50 AM 69.8 °F 64.4 °F 83% 29.82 in 7.0 mi South 11.5 mph - N/A   Overcast
1:50 AM 69.8 °F 64.4 °F 83% 29.82 in 7.0 mi South 11.5 mph - N/A   Overcast
2:50 AM 69.8 °F 64.4 °F 83% 29.81 in 7.0 mi South 17.3 mph - N/A   Overcast
3:50 AM 69.8 °F 64.4 °F 83% 29.81 in 7.0 mi South 13.8 mph - N/A   Overcast
6:50 AM 69.8 °F 64.4 °F 83% 29.79 in 7.0 mi SSE 13.8 mph - N/A   Overcast
7:50 AM 69.8 °F 64.4 °F 83% 29.79 in 7.0 mi SSE 11.5 mph - N/A   Overcast
8:50 AM 71.6 °F 64.4 °F 78% 29.80 in 7.0 mi South 13.8 mph - N/A   Overcast
9:50 AM 71.6 °F 64.4 °F 78% 29.79 in 10.0 mi South 18.4 mph - N/A   Overcast
10:50 AM 73.4 °F 64.4 °F 73% 29.78 in 10.0 mi South 16.1 mph - N/A   Overcast
11:50 AM 73.4 °F 64.4 °F 73% 29.76 in 10.0 mi South 23.0 mph - N/A   Overcast
12:48 PM 78.8 °F 64.4 °F 61% 29.69 in 10.0 mi South 16.1 mph 21.9 mph N/A   Mostly Cloudy
1:50 PM 78.8 °F 62.6 °F 57% 29.66 in 10.0 mi South 17.3 mph 27.6 mph N/A   Mostly Cloudy
2:50 PM 75.2 °F 62.6 °F 65% 29.63 in 10.0 mi South 17.3 mph 27.6 mph N/A   Mostly Cloudy
3:50 PM 73.4 °F 64.4 °F 73% 29.61 in 7.0 mi South 18.4 mph - N/A   Mostly Cloudy
4:50 PM 71.6 °F 66.2 °F 83% 29.59 in 6.0 mi SE 20.7 mph - N/A Rain Rain
5:50 PM 71.6 °F 66.2 °F 83% 29.58 in 6.0 mi SSE 12.7 mph - N/A   Overcast
6:50 PM 71.6 °F 66.2 °F 83% 29.55 in 5.0 mi SSE 11.5 mph - N/A Rain Light Rain
7:30 PM 71.6 °F 66.2 °F 83% 29.56 in 4.0 mi SSE 18.4 mph 23.0 mph N/A Rain , Thunderstorm Thunderstorms and Rain
7:50 PM 69.8 °F 68.0 °F 94% 29.56 in 5.0 mi South 17.3 mph - N/A Rain , Thunderstorm Thunderstorms and Rain
8:50 PM 69.8 °F 68.0 °F 94% 29.56 in 6.0 mi South 23.0 mph - N/A Rain , Thunderstorm Thunderstorms and Rain
9:50 PM 69.8 °F 68.0 °F 94% 29.56 in 7.0 mi South 18.4 mph 25.3 mph N/A Rain Light Rain
10:15 PM 71.6 °F 68.0 °F 88% 29.58 in 5.0 mi South 20.7 mph 32.2 mph N/A Rain , Thunderstorm Thunderstorms and Rain
10:50 PM 69.8 °F 64.4 °F 83% - 7.0 mi South 18.4 mph 27.6 mph N/A   Overcast